Torna al catalogo

CZ-4 DEB

AttivoSSO
NORAD 37626·DEBRIS·🇨🇳 China

Lanciato Sep 3, 1990 da Taiyuan Satellite Launch Center

Loading…

Prossimi Passaggi (prossime 24 ore)

TLE

AggiornatoSource: Space-Track

Epoca: Sep 14, 2026, 07:45 UTC

1 37626U 90081DN  26257.32307774  .00000167  00000-0  20533-3 0  9997
2 37626  98.9503 198.4253 0161804 156.3177 355.5143 13.72415214153513

Traccia CZ-4 DEB in tempo reale con AllMySat

Download on the App Store